Starlink 2171

operational
NORAD ID: 47754 Int'l Des: 2021-017 Owner: SPXS Country: US Constellation: starlink
LEOCIRCULARSTARLINK_TYPE

Über Starlink 2171

Beschreibung wird geladen...

Live-Position

3D-Globus wird geladen...

Nächste Überflüge

Höhenverlauf

Altitude vs Time

uPlot chart will show altitude changes over time

Zweizeiliger Elementsatz

1 47754U 21017AJ 25354.83626750 .00078841 00000-0 15124-2 0 9997
2 47754 53.0512 192.1411 0010697 140.0300 220.1496 15.47266770266042
Epoch: 20. Dez. 2025 • Age: 9 hours

Aktueller Status

Höhe 437.6 km
Geschwindigkeit 7.65 km/s
Subsatellitenpunkt -21.19°S, 4.57°E
Startdatum 4. März 2021
Alter 4.7 years
Typ internet

Technische Details

Klassifizierung Payload
Masse 260.00 kg
Trockenmasse 248.00 kg
Gesamtmasse 260.00 kg
Länge 0.20 m
Durchmesser 2.80 m
Spannweite 9.00 m
Form Box + pan
Hersteller SPXS
Bus-Typ Starlink
Phasenstatus In Orbit
Besitzer/Staat SPXS/US

Große Konstellationen

Loading constellations...